Regional Weather Roundup
Issued by NWS Jackson, KY

Home | Current Version | Previous Version | Graphics & Text | Print | Product List | Glossary Off
Versions: 1 2 3 4 5 6 7 8 9 10 11 12 13 14 15 16 17 18 19 20 21 22 23 24 25 26 27 28 29 30 31 32 33 34 35 36 37 38 39 40 41 42 43 44 45 46 47 48 49 50

000
ASUS43 KJKL 290010
RWRJKL

EAST KENTUCKY HOURLY WEATHER ROUNDUP
NATIONAL WEATHER SERVICE JACKSON KY
800 PM EDT THU JUL 28 2016

NOTE: "FAIR" INDICATES FEW OR NO CLOUDS BELOW 12,000 FEET WITH
NO SIGNIFICANT WEATHER AND/OR OBSTRUCTIONS TO VISIBILITY.

* THESE REPORTS ARE NOT UNDER NWS QUALITY CONTROL AND MAY NOT
  REPORT WEATHER SUCH AS PRECIPITATION AND FOG.

KYZ079-080-083-085-087-088-110-112-115-119-120-290100
...EASTERN KENTUCKY...

CITY           SKY/WX    TMP DP  RH WIND       PRES   REMARKS
JACKSON        CLOUDY    73  71  93 CALM      29.94R
6HR MIN TEMP:  70; 6HR MAX TEMP:  74; 6HR PCP:  0.24;

LONDON         CLOUDY    73  67  81 W3        29.96R
6HR MIN TEMP:  71; 6HR MAX TEMP:  76; 6HR PCP:  0.44;

SOMERSET*      CLOUDY    72  70  94 CALM      29.96R
MONTICELLO*    PTCLDY   N/A N/A N/A VRB7      29.97S
                                      6HR PCP:  0.66;

WILLIAMSBURG*  CLOUDY    73  73 100 CALM      29.97R
MIDDLESBORO*   LGT RAIN  72  71  99 CALM      29.95R
6HR MIN TEMP:  71; 6HR MAX TEMP:  88; 6HR PCP:  0.78;

HARLAN APT*      N/A     70  68  94 CALM      29.97R
PIKE CO APT*   LGT RAIN  69  69 100 CALM      29.94S
BIG SANDY APT* RAIN      71  71 100 CALM      29.93S
6HR MIN TEMP:  69; 6HR MAX TEMP:  74;

MOREHEAD APT*  CLOUDY    75  72  88 SW5       29.94R
ASHLAND*       CLOUDY    75  72  88 CALM      29.88R
$$

KYZ035-036-041-042-044-050-067-078-099-290100
...CENTRAL KENTUCKY...

CITY           SKY/WX    TMP DP  RH WIND       PRES   REMARKS
MT STERLING*   CLOUDY    73  72  94 SW5       29.95R
FLEMING/MASON* PTCLDY    77  71  81 SW3       29.92R
DANVILLE*      CLEAR     77  70  78 SW5       29.95R
LEXINGTON      CLOUDY    77  70  79 S5        29.92R
6HR MIN TEMP:  74; 6HR MAX TEMP:  79; 6HR PCP: TRACE;

FRANKFORT      CLOUDY    78  72  81 SE3       29.90R
6HR MIN TEMP:  77; 6HR MAX TEMP:  82;

LOUISVILLE     MOCLDY    83  70  64 W9        29.89R
6HR MIN TEMP:  80; 6HR MAX TEMP:  88;

LEBANON*         N/A     77  72  83 S5        29.93R
GLASGOW*       CLOUDY    79  70  74 CALM      29.93S
BOWLING GREEN  PTCLDY    83  73  72 SE7       29.91S
6HR MIN TEMP:  77; 6HR MAX TEMP:  86;

$$

KYZ091>093-OHZ055-061-077-WVZ005-015-034-035-042-290100
...SOUTHERN OHIO/WEST VIRGINIA...

CITY           SKY/WX    TMP DP  RH WIND       PRES   REMARKS
COVINGTON      MOCLDY    79  72  79 W6        29.90R
COLUMBUS       TSTM      74  70  87 W16       29.89R FOG
DAYTON         CLOUDY    83  66  56 W7        29.90R
WILMINGTON     PTCLDY    77  71  82 S5        29.89R
HUNTINGTON     LGT RAIN  73  71  93 CALM      29.90R
CHARLESTON     CLOUDY    74  71  91 W3        29.90R FOG
PINEVILLE*     RAIN      72  68  88 MISG      30.00R
BECKLEY        LGT RAIN  71  68  90 W5        29.96S
BLUEFIELD      HVY RAIN  70  67  90 W13G25    30.00R VSB 3/4
LOGAN CO APT*  CLOUDY    72  70  94 CALM      29.93R FOG
$$

VAZ002-007-008-TNZ017-027-036-066-071-290100
...SOUTHWEST VIRGINIA/EAST TENNESSEE...

CITY           SKY/WX    TMP DP  RH WIND       PRES   REMARKS
WISE*          RAIN      68  68 100 CALM      30.01R
JONESVILLE*    LGT RAIN  72  70  94 CALM      29.97S
ABINGDON*      CLOUDY    80  68  67 NW8       29.95R
BRISTOL        TSTM      77  71  82 W18       29.95R
MORRISTOWN*    MOCLDY    75  73  94 W6        29.93S
SEVIERVILLE*   CLOUDY    75  70  83 SW10      29.93S
KNOXVILLE      CLOUDY    79  70  74 W13G24    29.93R
OAK RIDGE      CLOUDY    74  71  91 W3        29.95R
CROSSVILLE     CLOUDY    72  70  93 W6        30.01R
NASHVILLE      CLOUDY    84  70  62 SW3       29.92F
$$

...KEY TO REMARKS...
VSB - VISIBILITY IN MILES
WCI - WIND CHILL INDEX
HX  - HEAT INDEX

$$



USA.gov is the U.S. government's official web portal to all federal, state and local government web resources and services.